Novato, CA

11:23 AM PST on November 20, 2019 (GMT -0800)
Gnoss

Weather History for KDVO - September, 2019

Change the Weather History Date:

Thursday, September 12, 2019

  Actual Average (KAPC) Record (KAPC)
Temperature  
Mean Temperature 72 °F -  
Max Temperature 95 °F 83 °F 99 °F (2003)
Min Temperature 48 °F 52 °F 40 °F (2005)
Cooling Degree Days 6    
Growing Degree Days 22 (Base 50)    
Moisture  
Dew Point 49 °F    
Average Humidity 53    
Maximum Humidity 94    
Minimum Humidity 19    
Precipitation  
Precipitation 0.00 in - - ()
Sea Level Pressure  
Sea Level Pressure 30.00 in    
Wind  
Wind Speed 2 mph ()    
Max Wind Speed 10 mph    
Max Gust Speed 12 mph    
Visibility 8.7 miles    
Events      
Averages and records for this station are not official NWS values.
T = Trace of Precipitation, MM = Missing Value Source: Averaged Metar Reports

Daily Weather History Graph

Daily Weather History Graph

Search for Another Location

Airport or City:

Astronomy

Sep. 12, 2019 Rise Set
Actual Time 6:49 AM PDT 7:23 PM PDT
Civil Twilight 6:22 AM PDT 7:49 PM PDT
Nautical Twilight 5:51 AM PDT 8:20 PM PDT
Astronomical Twilight 5:19 AM PDT 8:52 PM PDT
Moon 7:08 PM PDT (9/12) 5:16 AM PDT (9/12)
Length of Visible Light 13h 26m
Length of Day
12h 33m
Waxing Gibbous, 98% of the Moon is Illuminated
Sep 12
Waxing Gibbous
Sep 13
Full
Sep 21
Last Quarter
Sep 28
New
Oct 5
First Quarter

Hourly Weather History & Observations

Time (PDT) Temp. Heat Index Dew Point Humidity Pressure Visibility Wind Dir Wind Speed Gust Speed Precip Events Conditions
12:15 AM 60.8 °F - 50.0 °F 68% 29.99 in 10.0 mi South 3.5 mph - N/A   Clear
12:35 AM 59.0 °F - 50.0 °F 72% 30.00 in 10.0 mi Calm Calm - N/A   Clear
12:55 AM 60.8 °F - 51.8 °F 72% 30.00 in 10.0 mi Calm Calm - N/A   Clear
1:15 AM 55.4 °F - 46.4 °F 72% 30.00 in 10.0 mi Calm Calm - N/A   Clear
1:35 AM 55.4 °F - 48.2 °F 77% 30.01 in 10.0 mi Calm Calm - N/A   Clear
1:55 AM 55.4 °F - 50.0 °F 82% 30.01 in 10.0 mi Calm Calm - N/A   Clear
2:15 AM 57.2 °F - 51.8 °F 82% 30.01 in 10.0 mi Calm Calm - N/A   Clear
2:35 AM 59.0 °F - 51.8 °F 77% 30.01 in 10.0 mi Calm Calm - N/A   Clear
2:55 AM 57.2 °F - 50.0 °F 77% 30.01 in 10.0 mi Calm Calm - N/A   Clear
3:15 AM 51.8 °F - 48.2 °F 88% 30.01 in 10.0 mi Calm Calm - N/A   Clear
3:35 AM 51.8 °F - 48.2 °F 88% 30.01 in 10.0 mi Calm Calm - N/A   Clear
3:55 AM 55.4 °F - 50.0 °F 82% 30.01 in 10.0 mi Calm Calm - N/A   Clear
4:15 AM 55.4 °F - 48.2 °F 77% 30.01 in 10.0 mi Calm Calm - N/A   Clear
4:35 AM 53.6 °F - 48.2 °F 82% 30.01 in 10.0 mi Calm Calm - N/A   Clear
4:55 AM 53.6 °F - 48.2 °F 82% 30.01 in 10.0 mi Calm Calm - N/A   Clear
5:15 AM 50.0 °F - 44.6 °F 82% 30.01 in 10.0 mi NNW 3.5 mph - N/A   Clear
5:35 AM 51.8 °F - 48.2 °F 88% 30.01 in 10.0 mi Calm Calm - N/A   Clear
5:55 AM 51.8 °F - 50.0 °F 94% 30.01 in 10.0 mi Calm Calm - N/A   Clear
6:15 AM 53.6 °F - 51.8 °F 94% 30.02 in 10.0 mi Calm Calm - N/A   Clear
6:35 AM 53.6 °F - 51.8 °F 94% 30.02 in 10.0 mi Calm Calm - N/A   Clear
6:55 AM 48.2 °F - 46.4 °F 93% 30.03 in 10.0 mi Calm Calm - N/A   Clear
7:15 AM 50.0 °F - 48.2 °F 94% 30.03 in 10.0 mi Calm Calm - N/A   Clear
7:35 AM 55.4 °F - 50.0 °F 82% 30.03 in 10.0 mi Calm Calm - N/A   Clear
7:55 AM 57.2 °F - 50.0 °F 77% 30.04 in 10.0 mi Calm Calm - N/A   Clear
8:15 AM 59.0 °F - 51.8 °F 77% 30.04 in 10.0 mi Calm Calm - N/A   Clear
8:35 AM 62.6 °F - 53.6 °F 72% 30.04 in 10.0 mi Calm Calm - N/A   Clear
8:55 AM 64.4 °F - 53.6 °F 68% 30.05 in 10.0 mi Calm Calm - N/A   Clear
9:15 AM 66.2 °F - 53.6 °F 64% 30.06 in 10.0 mi Calm Calm - N/A   Clear
9:35 AM 69.8 °F - 53.6 °F 56% 30.06 in 7.0 mi Calm Calm - N/A   Clear
9:55 AM 71.6 °F - 51.8 °F 50% 30.06 in 4.0 mi Calm Calm - N/A   Haze
10:15 AM 75.2 °F - 51.8 °F 44% 30.06 in 10.0 mi Calm Calm - N/A   Clear
10:35 AM 77.0 °F - 51.8 °F 41% 30.06 in 10.0 mi Calm Calm - N/A   Clear
10:55 AM 78.8 °F - 51.8 °F 39% 30.06 in 10.0 mi Calm Calm - N/A   Clear
11:15 AM 80.6 °F 80.3 °F 53.6 °F 39% 30.05 in 6.0 mi Calm Calm - N/A   Haze
11:35 AM 82.4 °F 81.4 °F 53.6 °F 37% 30.05 in 5.0 mi Calm Calm - N/A   Haze
11:55 AM 86.0 °F 84.2 °F 53.6 °F 33% 30.04 in 2.5 mi Variable 4.6 mph - N/A   Haze
12:15 PM 86.0 °F 84.5 °F 55.4 °F 35% 30.04 in 3.0 mi SE 5.8 mph - N/A   Haze
12:35 PM 86.0 °F 84.2 °F 53.6 °F 33% 30.04 in 5.0 mi SE 6.9 mph - N/A   Haze
12:55 PM 87.8 °F - 50.0 °F 27% 30.03 in 5.0 mi SE 6.9 mph - N/A   Haze
1:15 PM 89.6 °F - 50.0 °F 26% 30.02 in 4.0 mi Variable 4.6 mph 11.5 mph N/A   Haze
1:35 PM 91.4 °F - 48.2 °F 23% 30.02 in 3.0 mi Variable 4.6 mph - N/A   Haze
1:55 PM 91.4 °F - 46.4 °F 21% 30.00 in 4.0 mi South 5.8 mph - N/A   Haze
2:15 PM 91.4 °F - 46.4 °F 21% 30.00 in 4.0 mi Variable 4.6 mph - N/A   Haze
2:35 PM 93.2 °F - 46.4 °F 20% 29.99 in 4.0 mi Variable 5.8 mph - N/A   Haze
2:55 PM 95.0 °F - 48.2 °F 20% 29.98 in 7.0 mi NNE 5.8 mph - N/A   Clear
3:15 PM 95.0 °F - 46.4 °F 19% 29.97 in 5.0 mi ESE 5.8 mph - N/A   Haze
3:35 PM 95.0 °F - 48.2 °F 20% 29.97 in 5.0 mi ESE 6.9 mph - N/A   Haze
3:55 PM 93.2 °F - 48.2 °F 21% 29.96 in 5.0 mi Variable 5.8 mph 11.5 mph N/A   Haze
4:15 PM 93.2 °F - 48.2 °F 21% 29.96 in 9.0 mi ESE 10.4 mph - N/A   Clear
4:55 PM 93.2 °F - 48.2 °F 21% 29.95 in 10.0 mi ESE 5.8 mph - N/A   Clear
5:15 PM 93.2 °F - 46.4 °F 20% 29.95 in 10.0 mi North 5.8 mph - N/A   Clear
5:35 PM 93.2 °F - 48.2 °F 21% 29.95 in 10.0 mi NW 8.1 mph - N/A   Clear
5:55 PM 89.6 °F - 48.2 °F 24% 29.95 in 10.0 mi NW 9.2 mph - N/A   Clear
6:15 PM 89.6 °F - 46.4 °F 22% 29.95 in 10.0 mi NNW 6.9 mph - N/A   Clear
6:35 PM 87.8 °F - 44.6 °F 22% 29.95 in 10.0 mi Calm Calm - N/A   Clear
6:55 PM 86.0 °F - 44.6 °F 23% 29.95 in 10.0 mi Calm Calm - N/A   Clear
7:15 PM 82.4 °F - 44.6 °F 26% 29.95 in 10.0 mi East 4.6 mph - N/A   Clear
7:35 PM 77.0 °F - 44.6 °F 32% 29.96 in 10.0 mi ENE 3.5 mph - N/A   Clear
7:55 PM 77.0 °F - 44.6 °F 32% 29.95 in 10.0 mi Calm Calm - N/A   Clear
8:15 PM 75.2 °F - 44.6 °F 34% 29.96 in 10.0 mi Calm Calm - N/A   Clear
8:35 PM 71.6 °F - 46.4 °F 41% 29.96 in 10.0 mi Variable 4.6 mph - N/A   Clear
8:55 PM 69.8 °F - 48.2 °F 46% 29.96 in 10.0 mi North 9.2 mph - N/A   Clear
9:15 PM 68.0 °F - 50.0 °F 52% 29.97 in 10.0 mi North 4.6 mph - N/A   Clear
9:35 PM 64.4 °F - 50.0 °F 59% 29.97 in 10.0 mi North 6.9 mph - N/A   Clear
9:55 PM 64.4 °F - 50.0 °F 59% 29.98 in 10.0 mi NNW 4.6 mph - N/A   Clear
10:15 PM 64.4 °F - 48.2 °F 56% 29.98 in 10.0 mi NNW 4.6 mph - N/A   Clear
10:35 PM 66.2 °F - 48.2 °F 52% 29.98 in 10.0 mi NNW 4.6 mph - N/A   Clear
10:55 PM 64.4 °F - 48.2 °F 56% 29.98 in 10.0 mi NW 4.6 mph - N/A   Clear
11:15 PM 66.2 °F - 48.2 °F 52% 29.98 in 10.0 mi Calm Calm - N/A   Clear
11:35 PM 66.2 °F - 46.4 °F 49% 29.98 in 10.0 mi WNW 3.5 mph - N/A   Clear
11:55 PM 64.4 °F - 46.4 °F 52% 29.98 in 10.0 mi Calm Calm - N/A   Clear